Dewpoint
45 46 46 47 47 48 48 43 35 44 45 37 37 33 32 32 31 28 24 26 24 20 16 11 12 16 15 24 28 27 28 26 23 21 23 23 20 20 20 20 19 22 21 20
45 43 46 47 47 48 45 37 37 44 45 32 32 33 33 33 32 32 26 23 21 20 18 16 14 15 25 26 28 26 28 26 19 17 21 24 21 22 22 20 20 19 20 19
45 46 46 46 47 47 43 38 32 38 39 39 34 34 34 31 34 32 31 30 27 24 23 23 18 16 24 28 27 31 30 24 21 16 16 22 23 23 23 21 19 20 21 21
44 44 45 46 46 46 44 38 35 36 30 32 34 34 34 33 33 34 32 28 28 26 24 24 22 21 20 27 30 31 30 25 24 25 24 24 23 23 23 21 20 19 20 20
41 41 42 42 44 46 42 35 35 36 35 35 33 32 30 29 30 31 32 31 30 29 26 26 24 23 21 21 29 30 30 27 26 24 23 23 20 19 20 20 19 19 19 14
38 38 39 39 40 44 40 39 39 37 33 33 31 31 31 30 34 34 35 32 31 29 31 30 33 31 30 27 24 27 27 28 24 21 23 22 18 18 17 17 17 15 12 13
36 36 37 37 38 39 39 39 37 33 29 29 27 27 28 28 28 30 30 31 31 35 34 33 31 30 30 28 27 25 24 25 25 22 22 16 16 18 17 17 18 17 16 16
35 35 36 36 36 36 36 37 37 33 27 28 26 25 25 25 26 26 25 27 31 31 29 27 26 24 26 26 28 28 27 26 23 19 19 19 18 14 18 17 15 17 16 18
33 33 34 34 35 34 35 34 35 34 28 23 23 20 22 23 25 26 26 27 27 28 28 27 24 20 21 17 23 27 26 27 24 20 19 15 15 17 21 15 12 20 19 18
33 33 33 33 34 34 35 35 36 34 28 26 27 24 22 24 27 27 27 27 27 28 26 26 24 22 25 21 21 23 23 24 24 22 21 21 22 22 18 11 14 21 21 20
33 33 33 33 33 34 35 35 36 34 28 28 28 27 26 27 29 26 25 30 31 32 29 26 26 25 22 22 20 23 23 22 22 23 21 17 23 19 14 19 20 20 21 23
34 33 35 34 33 34 36 34 36 35 32 28 33 33 33 33 30 26 31 31 33 34 31 30 28 24 22 21 17 23 21 22 22 22 21 22 23 20 22 21 21 20 21 24
33 34 36 37 36 33 34 35 36 35 32 28 28 26 29 31 32 34 30 31 35 35 37 33 33 29 24 23 16 15 19 23 18 22 19 22 23 24 20 22 22 20 22 26
30 30 30 31 32 35 32 33 35 34 33 25 21 26 30 36 36 35 34 33 37 36 37 33 31 30 28 21 20 13 16 18 19 18 18 18 19 19 21 23 24 21 22 27
30 29 29 30 30 34 33 34 34 35 31 23 24 27 25 25 36 38 38 37 37 36 33 31 30 32 32 23 20 18 18 17 16 15 18 18 20 22 24 23 23 21 23 26
31 32 30 29 30 33 32 28 38 39 39 30 24 31 33 36 35 35 36 38 37 37 34 33 34 33 29 21 19 18 19 19 20 18 20 21 23 24 24 23 23 23 24 26
31 31 30 29 31 33 31 26 34 39 36 27 22 28 33 36 36 36 36 37 36 34 33 34 34 29 28 26 20 19 21 21 21 21 21 20 25 23 26 25 25 26 27 28
32 30 29 30 32 32 31 33 34 35 32 32 23 24 29 33 30 29 34 32 33 33 33 34 31 29 28 24 25 21 22 23 23 23 25 27 27 27 26 26 25 24 25 27
31 30 31 32 31 30 30 38 38 35 32 26 27 25 23 32 31 32 32 35 29 34 31 31 29 27 23 24 23 22 24 24 24 27 28 27 26 26 25 26 26 25 25 26
30 31 28 23 28 34 32 33 33 32 32 31 27 34 28 32 31 30 30 32 31 27 30 30 28 26 27 27 27 27 26 27 26 25 24 25 25 26 25 26 26 25 25 26
30 26 24 30 31 27 28 26 27 30 27 30 30 31 28 34 30 30 32 30 30 26 27 26 26 25 25 27 27 28 28 27 26 26 26 26 26 26 26 27 28 28 28 26
28 28 30 31 28 25 22 25 28 28 26 32 29 30 33 33 35 31 30 29 29 24 29 26 23 26 27 26 26 26 26 26 26 26 27 27 27 27 27 28 29 29 29 28
29 24 25 25 22 19 20 20 24 27 30 31 32 29 31 31 32 31 29 26 24 27 24 21 24 27 25 25 26 26 27 28 28 27 26 26 27 27 27 27 28 29 27 28
23 21 16 20 20 22 24 25 26 29 29 31 32 30 30 31 29 30 26 26 25 20 19 20 25 24 25 26 26 26 28 27 26 26 26 26 26 26 26 27 27 27 27 29
22 22 17 20 26 27 27 30 29 30 32 31 31 31 32 30 28 29 24 21 20 20 20 25 25 26 27 27 27 26 26 26 25 25 25 24 25 25 24 26 27 28 28 28
22 21 20 23 22 23 22 25 27 31 29 32 32 30 29 28 29 25 22 20 19 23 25 26 27 27 26 25 25 24 25 24 24 24 24 24 23 23 23 24 25 26 27 27
20 21 26 25 23 23 24 24 25 29 26 29 31 28 28 30 27 26 25 24 26 26 26 27 27 29 29 28 26 25 25 26 26 25 25 25 24 23 22 22 24 24 25 24
Wind_Speed
4 1 2 4 4 7 9 5 6 3 10 8 5 11 6 4 17 5 7 5 9 10 15 16 13 11 6 7 8 4 9 5 10 14 25 14 5 7 11 8 10 13 19 36
6 5 2 5 6 13 6 4 2 0 2 9 17 11 14 15 19 19 7 8 10 8 12 9 11 16 5 3 7 4 3 6 10 12 1 2 4 7 12 16 16 27 20 21
11 8 5 5 3 4 5 3 5 4 5 3 5 4 13 24 6 6 10 14 15 16 17 17 10 11 1 6 10 2 2 6 12 19 21 19 29 28 19 16 14 21 30 40
14 16 13 11 6 7 4 4 3 2 6 13 13 10 8 6 8 10 9 10 21 19 17 15 22 20 22 10 10 6 5 10 17 21 23 25 28 32 28 22 25 20 36 32
11 13 13 15 15 6 3 3 2 2 5 1 15 19 13 23 19 12 12 17 12 12 17 21 23 24 22 13 9 9 11 8 14 24 24 24 26 24 21 27 26 26 25 26
8 9 11 13 15 7 3 5 2 4 6 5 6 7 11 12 10 11 21 22 19 21 18 17 16 23 25 21 18 14 8 5 7 11 15 23 15 7 5 9 15 17 19 16
8 8 9 9 10 8 2 2 3 2 6 10 13 14 15 18 18 21 18 17 14 8 13 16 16 21 25 25 23 14 13 10 5 14 15 6 3 8 7 10 18 19 14 14
9 8 8 7 7 7 7 2 1 3 6 8 12 18 15 18 18 23 25 21 23 19 20 19 16 15 16 23 23 24 19 14 7 6 7 19 17 2 1 2 15 3 8 13
9 10 11 9 7 6 5 7 4 5 8 10 11 19 18 22 21 23 24 21 19 19 17 14 14 14 10 6 2 7 4 14 13 8 6 6 2 5 3 4 7 7 9 11
9 9 10 11 10 8 6 5 6 6 12 16 20 18 16 9 15 20 21 16 18 19 22 21 20 23 8 25 10 6 6 9 25 20 8 12 13 7 6 2 3 14 13 8
13 13 12 12 13 13 9 9 7 7 11 22 22 30 27 14 16 22 14 8 8 6 12 13 14 12 15 21 15 15 18 17 11 11 10 13 13 4 5 2 4 10 11 7
16 17 16 14 14 15 14 12 10 12 12 22 23 28 28 26 32 31 18 14 6 9 9 12 9 18 14 25 29 12 13 11 11 19 13 3 10 2 0 3 4 5 6 8
15 15 15 16 17 16 15 14 9 8 11 22 23 26 36 34 37 35 28 25 16 9 5 2 6 15 19 15 17 10 8 12 6 7 10 20 11 13 3 1 4 6 3 5
17 17 17 18 17 17 15 14 12 11 9 11 18 16 22 17 26 32 40 40 14 13 9 10 8 5 13 26 18 13 8 14 11 8 12 7 10 8 6 2 4 3 3 2
18 18 18 19 20 19 16 14 16 19 16 13 12 25 39 29 20 28 31 32 26 10 9 8 11 7 9 10 3 7 9 8 12 10 7 4 3 6 1 1 2 3 2 2
19 20 20 20 20 19 11 5 4 8 3 6 9 8 10 10 15 19 20 18 14 7 7 7 7 8 5 7 8 5 20 8 5 4 3 6 5 2 2 1 3 3 2 2
21 22 23 22 21 17 11 7 2 11 8 5 10 10 2 3 6 6 9 12 5 6 4 8 5 8 13 5 6 5 7 10 6 5 3 3 4 3 0 3 3 1 2 1
21 23 23 22 24 23 18 23 31 26 17 8 7 9 3 5 4 5 7 8 6 8 5 5 9 4 5 9 9 11 6 6 7 8 6 3 3 1 3 1 3 5 3 2
22 21 19 19 10 9 7 12 10 17 14 6 9 7 10 9 6 4 5 6 8 6 10 7 9 9 10 10 12 11 12 8 6 7 5 4 5 6 5 4 3 6 7 4
18 9 5 5 4 10 14 3 6 12 11 8 8 3 6 7 7 8 7 5 7 8 10 6 7 8 13 10 7 6 10 10 9 6 6 6 5 4 3 4 4 4 5 4
5 6 7 5 10 2 5 6 8 10 7 9 11 18 9 5 8 6 5 4 6 6 7 11 7 8 13 15 15 11 10 9 8 3 1 1 2 5 7 9 8 7 6 6
8 2 5 3 3 4 7 8 6 8 7 9 11 8 6 6 3 3 5 4 4 5 6 5 5 4 6 6 7 7 6 5 4 3 4 3 4 5 6 8 8 8 6 5
2 3 3 4 8 12 9 9 6 5 1 5 8 10 8 5 5 4 4 6 7 8 5 4 7 5 6 6 6 5 5 3 3 2 1 2 3 4 5 5 4 5 5 5
6 5 7 8 7 8 4 4 6 3 6 9 13 7 6 5 5 4 5 3 5 5 5 6 6 12 9 7 5 6 6 5 4 3 2 2 2 1 2 2 3 2 3 5
4 4 7 7 6 4 7 7 6 5 6 9 5 3 5 5 5 5 5 4 4 7 8 5 9 10 10 8 6 7 8 7 6 4 5 7 5 5 7 7 6 6 6 7
4 6 8 9 9 6 9 10 10 7 12 6 4 5 5 4 6 6 6 9 7 4 4 8 11 11 10 10 9 8 9 9 8 8 8 9 8 8 9 12 12 10 8 8
4 7 4 7 10 11 7 12 7 10 9 5 5 5 3 6 4 5 3 4 2 10 10 10 11 12 11 11 11 11 12 13 13 14 13 12 11 14 16 17 12 13 13 12
Wind_Direction
316 276 325 329 296 181 151 140 207 167 153 187 202 227 226 250 282 262 259 291 274 280 299 297 272 260 290 122 150 210 212 282 281 269 274 277 219 268 275 268 263 263 286 277
349 306 339 346 352 170 151 182 188 181 151 227 229 235 251 238 252 257 235 242 242 275 284 284 245 253 102 156 184 253 150 242 302 312 72 113 216 242 283 289 282 277 284 277
24 16 335 322 314 278 219 209 202 150 211 249 230 289 251 242 222 261 272 268 279 277 270 262 271 288 220 198 230 250 6 245 233 252 272 305 294 289 286 282 273 276 262 283
33 33 29 32 13 326 213 206 244 165 195 223 240 243 285 282 246 205 258 249 244 256 263 263 263 256 264 217 204 185 219 261 261 266 275 284 282 281 283 266 261 260 275 290
30 32 29 31 22 7 200 250 199 231 298 353 211 231 247 264 282 275 243 242 253 269 265 263 278 294 298 301 156 174 222 267 306 294 276 273 282 277 268 267 271 264 273 284
15 18 21 16 19 15 334 344 352 248 206 204 222 230 231 231 215 249 244 264 263 270 273 303 306 300 295 289 282 196 214 225 313 280 337 311 291 278 246 265 276 280 284 298
355 358 9 9 12 26 77 28 325 317 256 240 248 258 255 255 252 244 264 273 279 272 315 305 296 279 276 268 262 243 243 224 249 286 314 268 242 261 243 265 281 289 272 322
347 341 340 347 357 352 321 312 206 243 265 260 286 279 280 290 289 276 263 254 256 267 283 289 294 292 272 244 235 232 227 229 248 257 280 284 294 234 279 335 309 25 329 321
325 329 326 317 317 323 312 293 293 263 281 245 252 276 276 275 275 278 273 268 259 251 246 253 246 243 281 212 185 11 297 207 205 214 247 260 281 196 134 131 305 345 325 325
288 294 303 309 312 295 291 285 295 276 269 263 251 253 259 252 266 275 281 266 268 231 239 240 234 242 248 259 221 162 165 203 221 226 260 275 266 145 150 353 301 320 320 331
281 276 276 284 293 296 279 274 267 246 272 274 273 268 268 263 260 257 261 303 229 201 215 229 231 238 234 239 225 172 176 177 189 207 221 266 180 134 212 238 317 337 326 343
286 287 283 273 275 287 286 277 258 255 251 265 298 281 267 253 252 257 267 260 255 193 208 219 220 242 245 226 244 183 196 200 188 192 212 258 184 214 126 84 308 325 334 331
278 283 283 279 279 279 293 285 280 289 270 283 257 253 257 248 240 233 245 248 236 208 196 198 258 252 217 231 237 215 231 201 233 188 252 237 227 248 192 75 301 314 312 325
277 282 285 289 293 284 285 285 283 268 277 270 282 271 262 268 245 228 230 237 239 236 168 215 237 296 299 224 224 231 193 166 208 248 275 270 234 238 164 315 303 300 278 286
275 278 282 288 289 290 287 281 267 245 231 259 281 302 290 269 250 233 227 226 221 205 160 194 232 238 255 268 139 216 184 196 191 218 206 156 140 144 89 314 13 11 331 303
268 276 278 281 285 290 293 293 58 95 216 266 278 263 266 240 223 211 205 205 215 193 165 204 220 220 221 237 193 215 202 206 213 207 106 98 115 113 92 69 38 4 355 347
266 272 278 281 279 280 249 233 236 213 15 335 295 288 18 262 192 202 196 199 190 160 213 210 232 225 196 251 222 162 182 209 216 167 154 241 193 187 247 328 331 27 340 356
264 269 278 285 284 284 269 253 257 257 272 224 241 259 278 185 206 186 170 162 157 183 213 230 203 208 222 238 227 248 181 171 181 192 194 147 130 290 299 294 325 323 296 225
261 274 290 293 262 237 233 304 289 214 210 222 214 233 262 168 191 164 181 175 170 172 202 214 178 198 219 218 209 221 202 208 192 164 180 217 248 270 282 288 288 275 285 266
259 274 247 248 195 336 314 268 203 202 208 232 246 234 239 214 176 185 175 187 178 185 213 155 223 237 221 218 197 167 174 177 156 181 224 221 239 239 255 285 296 277 272 275
218 215 222 308 341 290 227 244 221 203 214 206 217 207 185 217 203 160 209 184 168 192 201 191 219 228 217 214 204 169 164 171 184 193 172 162 226 263 279 284 284 272 269 256
187 211 280 254 236 229 236 219 217 217 230 191 182 171 157 171 197 146 184 183 174 236 151 197 247 198 168 142 115 116 135 169 188 201 239 246 242 250 260 271 277 271 266 259
225 211 249 204 219 227 230 211 213 229 243 197 165 157 159 157 191 138 166 179 200 134 184 223 239 177 127 118 127 132 117 138 167 179 196 260 266 274 254 272 284 264 266 218
190 203 247 233 205 229 230 351 319 281 272 263 185 156 167 156 150 142 174 136 136 210 217 235 184 161 141 136 131 137 140 133 122 110 60 67 34 2 7 343 322 301 179 163
208 216 246 243 320 324 290 298 288 266 263 271 201 163 161 145 154 164 118 157 220 209 220 200 139 130 130 124 118 117 118 118 110 109 82 72 76 87 69 45 48 81 112 128
225 242 280 311 316 318 330 317 306 332 337 255 216 199 184 164 155 160 194 171 217 204 108 118 121 114 108 104 96 95 95 99 95 82 78 75 71 79 80 68 60 66 92 107
236 245 273 286 287 277 299 310 307 331 305 243 208 213 159 124 164 177 180 208 123 117 96 89 100 102 97 95 92 86 89 84 80 79 73 73 74 78 74 69 58 70 73 79